This is the latest recevied weather packets stored in our database for station/object G1OCN-WX. If no packets are shown the sender has not sent any weather packets the latest 10 day(s).
| Time | Temp. | Humidity | Pressure | Rain* | Wind** | Luminosity | Snow |
|---|---|---|---|---|---|---|---|
| 1788136101 | 16.67° C | 77% | 1006.8 hPa | 0 mm | - | - | - |
| 1788135921 | 16.67° C | 77% | 1006.8 hPa | 0 mm | - | - | - |
| 1788135741 | 16.67° C | 76% | 1006.6 hPa | 0 mm | - | - | - |
| 1788135531 | 16.67° C | 77% | 1006.6 hPa | 0 mm | - | - | - |
| 1788135351 | 16.67° C | 77% | 1006.5 hPa | 0 mm | - | - | - |
| 1788135171 | 16.67° C | 79% | 1006.5 hPa | 0 mm | - | - | - |
| 1788134991 | 16.67° C | 79% | 1006.4 hPa | 0 mm | - | - | - |
| 1788134811 | 16.67° C | 78% | 1006.4 hPa | 0 mm | - | - | - |
| 1788134631 | 16.67° C | 78% | 1006.3 hPa | 0 mm | - | - | - |
| 1788134421 | 16.67° C | 78% | 1006.3 hPa | 0 mm | - | - | - |
| 1788134241 | 16.67° C | 78% | 1006.3 hPa | 0 mm | - | - | - |
| 1788134031 | 16.11° C | 77% | 1006.2 hPa | 0 mm | - | - | - |
| 1788133851 | 16.11° C | 77% | 1006.2 hPa | 0 mm | - | - | - |
| 1788133671 | 16.67° C | 77% | 1006.2 hPa | 0 mm | - | - | - |
| 1788133491 | 16.67° C | 80% | 1006.3 hPa | 0 mm | - | - | - |
| 1788133281 | 17.22° C | 80% | 1006.3 hPa | 0 mm | - | - | - |
| 1788133101 | 17.22° C | 78% | 1006.2 hPa | 0 mm | - | - | - |
| 1788132921 | 17.22° C | 79% | 1006.1 hPa | 0 mm | - | - | - |
| 1788132741 | 17.22° C | 79% | 1006.2 hPa | 0 mm | - | - | - |
| 1788132561 | 17.22° C | 78% | 1006.2 hPa | 0 mm | - | - | - |
| 1788132381 | 17.22° C | 79% | 1006.2 hPa | 0 mm | - | - | - |
| 1788132201 | 17.22° C | 78% | 1006.2 hPa | 0 mm | - | - | - |
| 1788131991 | 17.22° C | 79% | 1006.1 hPa | 0 mm | - | - | - |
| 1788131811 | 17.22° C | 79% | 1006 hPa | 0 mm | - | - | - |
| 1788131631 | 17.22° C | 81% | 1005.9 hPa | 0 mm | - | - | - |
* Rain latest hour (hover to see other rain measurements)
** Current wind speed in m/s (hover to see current wind gust speed)